When you browse on this site, cookies collect data to enhance your experience and personalize the content and advertising you see.
Visit our Privacy Policy to learn more. By continuing to use the site, you agree to this use of cookies and data.
  • In Lithuania
  • List of Countries
  • For 7 days
  • Water Temperature
  • Satellite Maps
  • Weather Map
  • Weather Widgets
  • user-avatar
    Login

    Hourly Weather Saurimo

    Today, 24 May, Friday

    Time Temperature Precipitation Wind Pressure Humidity
    00:00 +19°C° 0 mm 0 mps 671 mmHg 76%
    01:00 +21°C° 0 mm 1 mps 671 mmHg 73%
    02:00 +20°C° 0 mm 1 mps 671 mmHg 74%
    03:00 +20°C° 0 mm 1 mps 670 mmHg 75%
    04:00 +20°C° 0 mm 1 mps 670 mmHg 75%
    05:00 +20°C° 0 mm 1 mps 671 mmHg 72%
    06:00 +21°C° 0 mm 1 mps 671 mmHg 69%
    07:00 +21°C° 0 mm 2 mps 672 mmHg 65%
    08:00 +25°C° 0 mm 3 mps 672 mmHg 55%
    09:00 +28°C° 0 mm 3 mps 673 mmHg 46%
    10:00 +32°C° 0 mm 4 mps 673 mmHg 36%
    11:00 +33°C° 0 mm 4 mps 673 mmHg 34%
    12:00 +34°C° 0 mm 4 mps 672 mmHg 32%
    13:00 +35°C° 0 mm 4 mps 672 mmHg 29%
    14:00 +34°C° 0 mm 4 mps 672 mmHg 29%
    15:00 +34°C° 0 mm 3 mps 671 mmHg 29%
    16:00 +33°C° 0 mm 3 mps 671 mmHg 30%
    17:00 +30°C° 0 mm 3 mps 671 mmHg 34%
    18:00 +27°C° 0 mm 2 mps 671 mmHg 39%
    19:00 +25°C° 0 mm 2 mps 671 mmHg 44%
    20:00 +24°C° 0 mm 2 mps 671 mmHg 45%
    21:00 +23°C° 0 mm 2 mps 671 mmHg 46%
    22:00 +23°C° 0 mm 2 mps 671 mmHg 47%
    23:00 +21°C° 0 mm 2 mps 671 mmHg 47%

    Tomorrow, 25 May, Saturday

    Time Temperature Precipitation Wind Pressure Humidity
    00:00 +21°C° 0 mm 2 mps 671 mmHg 46%
    01:00 +20°C° 0 mm 2 mps 671 mmHg 45%
    02:00 +20°C° 0 mm 2 mps 671 mmHg 45%
    03:00 +19°C° 0 mm 2 mps 671 mmHg 45%
    04:00 +19°C° 0 mm 2 mps 670 mmHg 44%
    05:00 +19°C° 0 mm 3 mps 671 mmHg 43%
    06:00 +20°C° 0 mm 3 mps 671 mmHg 43%
    07:00 +20°C° 0 mm 4 mps 672 mmHg 42%
    08:00 +23°C° 0 mm 4 mps 672 mmHg 38%
    09:00 +27°C° 0 mm 4 mps 673 mmHg 33%
    10:00 +29°C° 0 mm 4 mps 674 mmHg 29%
    11:00 +30°C° 0 mm 4 mps 673 mmHg 27%
    12:00 +32°C° 0 mm 4 mps 673 mmHg 25%
    13:00 +34°C° 0 mm 4 mps 672 mmHg 24%
    14:00 +33°C° 0 mm 3 mps 672 mmHg 24%
    15:00 +33°C° 0 mm 3 mps 671 mmHg 25%
    16:00 +31°C° 0 mm 3 mps 671 mmHg 26%
    17:00 +29°C° 0 mm 2 mps 671 mmHg 31%
    18:00 +26°C° 0 mm 2 mps 671 mmHg 36%
    19:00 +24°C° 0 mm 2 mps 671 mmHg 41%
    20:00 +23°C° 0 mm 2 mps 671 mmHg 43%
    21:00 +21°C° 0 mm 2 mps 671 mmHg 44%
    22:00 +21°C° 0 mm 2 mps 671 mmHg 46%
    23:00 +20°C° 0 mm 2 mps 671 mmHg 45%

    Day after tomorrow, 26 May, Sunday

    Time Temperature Precipitation Wind Pressure Humidity
    00:00 +20°C° 0 mm 2 mps 671 mmHg 45%
    01:00 +20°C° 0 mm 2 mps 670 mmHg 44%
    02:00 +19°C° 0 mm 3 mps 670 mmHg 44%
    03:00 +19°C° 0 mm 3 mps 670 mmHg 44%
    04:00 +19°C° 0 mm 3 mps 670 mmHg 45%
    05:00 +19°C° 0 mm 3 mps 670 mmHg 45%
    06:00 +19°C° 0 mm 3 mps 671 mmHg 46%
    07:00 +20°C° 0 mm 4 mps 671 mmHg 47%
    08:00 +22°C° 0 mm 4 mps 672 mmHg 44%
    09:00 +26°C° 0 mm 4 mps 673 mmHg 41%
    10:00 +28°C° 0 mm 4 mps 674 mmHg 38%
    11:00 +30°C° 0 mm 3 mps 673 mmHg 36%
    12:00 +31°C° 0 mm 3 mps 672 mmHg 33%
    13:00 +33°C° 0 mm 3 mps 672 mmHg 31%
    14:00 +32°C° 0 mm 2 mps 671 mmHg 32%
    15:00 +31°C° 0 mm 2 mps 671 mmHg 33%
    16:00 +31°C° 0 mm 2 mps 670 mmHg 34%
    17:00 +29°C° 0 mm 2 mps 670 mmHg 39%
    18:00 +27°C° 0 mm 2 mps 670 mmHg 45%
    19:00 +24°C° 0 mm 2 mps 670 mmHg 50%
    20:00 +24°C° 0 mm 2 mps 670 mmHg 52%
    21:00 +23°C° 0 mm 2 mps 671 mmHg 53%
    22:00 +21°C° 0 mm 2 mps 671 mmHg 54%
    23:00 +21°C° 0 mm 2 mps 670 mmHg 53%

    27 May, Monday

    Time Temperature Precipitation Wind Pressure Humidity
    00:00 +20°C° 0 mm 2 mps 670 mmHg 51%
    01:00 +20°C° 0 mm 2 mps 670 mmHg 49%
    02:00 +20°C° 0 mm 2 mps 670 mmHg 48%
    03:00 +19°C° 0 mm 3 mps 670 mmHg 46%
    04:00 +19°C° 0 mm 3 mps 669 mmHg 44%
    05:00 +19°C° 0 mm 3 mps 670 mmHg 43%
    06:00 +20°C° 0 mm 3 mps 670 mmHg 43%
    07:00 +20°C° 0 mm 3 mps 671 mmHg 43%
    08:00 +22°C° 0 mm 3 mps 672 mmHg 39%
    09:00 +26°C° 0 mm 3 mps 672 mmHg 35%
    10:00 +29°C° 0 mm 4 mps 673 mmHg 32%
    11:00 +30°C° 0 mm 3 mps 672 mmHg 29%
    12:00 +32°C° 0 mm 2 mps 672 mmHg 27%
    13:00 +34°C° 0 mm 2 mps 671 mmHg 24%
    14:00 +34°C° 0 mm 2 mps 671 mmHg 25%
    15:00 +32°C° 0 mm 2 mps 670 mmHg 25%
    16:00 +32°C° 0 mm 2 mps 670 mmHg 26%
    17:00 +29°C° 0 mm 2 mps 670 mmHg 30%
    18:00 +27°C° 0 mm 2 mps 670 mmHg 35%
    19:00 +25°C° 0 mm 2 mps 670 mmHg 40%
    20:00 +24°C° 0 mm 2 mps 670 mmHg 41%
    21:00 +23°C° 0 mm 2 mps 670 mmHg 43%
    22:00 +23°C° 0 mm 2 mps 670 mmHg 45%
    23:00 +21°C° 0 mm 2 mps 670 mmHg 47%

    28 May, Tuesday

    Time Temperature Precipitation Wind Pressure Humidity
    00:00 +20°C° 0 mm 2 mps 670 mmHg 50%
    01:00 +20°C° 0 mm 2 mps 669 mmHg 52%
    02:00 +19°C° 0 mm 2 mps 669 mmHg 53%
    03:00 +19°C° 0 mm 2 mps 669 mmHg 53%
    04:00 +18°C° 0 mm 2 mps 669 mmHg 54%
    05:00 +19°C° 0 mm 2 mps 670 mmHg 52%
    06:00 +19°C° 0 mm 2 mps 670 mmHg 51%
    07:00 +20°C° 0 mm 2 mps 671 mmHg 49%
    08:00 +24°C° 0 mm 2 mps 672 mmHg 43%
    09:00 +27°C° 0 mm 3 mps 672 mmHg 38%
    10:00 +29°C° 0 mm 3 mps 673 mmHg 32%
    11:00 +31°C° 0 mm 2 mps 672 mmHg 30%
    12:00 +32°C° 0 mm 2 mps 672 mmHg 28%
    13:00 +34°C° 0 mm 2 mps 671 mmHg 26%
    14:00 +32°C° 0 mm 1 mps 670 mmHg 29%
    15:00 +31°C° 0 mm 1 mps 670 mmHg 32%
    16:00 +29°C° 0 mm 1 mps 669 mmHg 35%
    17:00 +28°C° 0 mm 1 mps 670 mmHg 38%
    18:00 +26°C° 0 mm 1 mps 670 mmHg 41%
    19:00 +25°C° 0 mm 1 mps 670 mmHg 44%
    20:00 +24°C° 0 mm 1 mps 670 mmHg 46%
    21:00 +24°C° 0 mm 1 mps 671 mmHg 47%
    22:00 +23°C° 0 mm 1 mps 671 mmHg 49%
    23:00 +23°C° 0 mm 1 mps 670 mmHg 52%

    29 May, Wednesday

    Time Temperature Precipitation Wind Pressure Humidity
    00:00 +22°C° 0 mm 1 mps 670 mmHg 55%
    01:00 +21°C° 0 mm 1 mps 669 mmHg 58%
    02:00 +20°C° 0 mm 1 mps 669 mmHg 59%
    03:00 +20°C° 0 mm 1 mps 669 mmHg 60%
    04:00 +19°C° 0 mm 1 mps 669 mmHg 61%
    05:00 +20°C° 0 mm 1 mps 670 mmHg 59%
    06:00 +20°C° 0 mm 1 mps 670 mmHg 58%
    07:00 +21°C° 0 mm 1 mps 671 mmHg 56%
    08:00 +24°C° 0 mm 2 mps 672 mmHg 48%
    09:00 +27°C° 0 mm 2 mps 672 mmHg 40%
    10:00 +30°C° 0 mm 2 mps 673 mmHg 32%
    11:00 +32°C° 0 mm 2 mps 672 mmHg 30%
    12:00 +34°C° 0 mm 2 mps 672 mmHg 27%
    13:00 +35°C° 0 mm 2 mps 671 mmHg 25%
    14:00 +32°C° 0 mm 2 mps 671 mmHg 28%
    15:00 +31°C° 0 mm 1 mps 670 mmHg 31%
    16:00 +30°C° 0 mm 1 mps 669 mmHg 34%
    17:00 +28°C° 0 mm 1 mps 670 mmHg 36%
    18:00 +27°C° 0 mm 1 mps 670 mmHg 37%
    19:00 +24°C° 0 mm 0 mps 671 mmHg 39%
    20:00 +25°C° 0 mm 1 mps 671 mmHg 41%
    21:00 +24°C° 0 mm 1 mps 671 mmHg 44%
    22:00 +23°C° 0 mm 1 mps 671 mmHg 46%
    23:00 +23°C° 0 mm 1 mps 670 mmHg 48%
    Show more